• In Latvia
  • List of Countries
  • For 7 days
  • Water Temperature
  • Satellite Maps
  • Weather Map
  • Weather Widgets
  • user-avatar
    Login

    Hourly Weather Mostar

    Today, 17 December, Sunday

    Time Temperature Precipitation Wind Pressure Humidity
    00:00 +8°C° 0.6 mm 3 mps 750 mmHg 84%
    01:00 +7°C° 0.6 mm 3 mps 750 mmHg 84%
    02:00 +7°C° 0.4 mm 3 mps 750 mmHg 84%
    03:00 +7°C° 0.4 mm 3 mps 750 mmHg 85%
    04:00 +5°C° 0.4 mm 3 mps 750 mmHg 85%
    05:00 +5°C° 0.5 mm 4 mps 751 mmHg 85%
    06:00 +5°C° 0.5 mm 4 mps 751 mmHg 85%
    07:00 +5°C° 0.5 mm 4 mps 751 mmHg 85%
    08:00 +5°C° 0.4 mm 4 mps 752 mmHg 83%
    09:00 +5°C° 0.4 mm 4 mps 752 mmHg 82%
    10:00 +5°C° 0.4 mm 5 mps 753 mmHg 81%
    11:00 +5°C° 0.3 mm 5 mps 753 mmHg 80%
    12:00 +5°C° 0.3 mm 5 mps 753 mmHg 79%
    13:00 +5°C° 0.3 mm 5 mps 753 mmHg 77%
    14:00 +5°C° 0.1 mm 5 mps 753 mmHg 77%
    15:00 +3°C° 0.1 mm 5 mps 754 mmHg 77%
    16:00 +3°C° 0.1 mm 5 mps 754 mmHg 77%
    17:00 +3°C° 0.1 mm 5 mps 755 mmHg 77%
    18:00 +2°C° 0.1 mm 5 mps 755 mmHg 76%
    19:00 +2°C° 0.1 mm 5 mps 756 mmHg 76%
    20:00 +2°C° 0.1 mm 5 mps 756 mmHg 76%
    21:00 +2°C° 0.1 mm 5 mps 757 mmHg 76%
    22:00 +2°C° 0.1 mm 5 mps 757 mmHg 75%
    23:00 +2°C° 0 mm 5 mps 757 mmHg 75%

    Tomorrow, 18 December, Monday

    Time Temperature Precipitation Wind Pressure Humidity
    00:00 +2°C° 0 mm 5 mps 757 mmHg 75%
    01:00 +2°C° 0 mm 5 mps 758 mmHg 74%
    02:00 +1°C° 0 mm 5 mps 758 mmHg 74%
    03:00 +1°C° 0 mm 5 mps 758 mmHg 73%
    04:00 +1°C° 0 mm 5 mps 758 mmHg 73%
    05:00 +1°C° 0 mm 5 mps 758 mmHg 73%
    06:00 +1°C° 0 mm 5 mps 758 mmHg 72%
    07:00 +1°C° 0 mm 5 mps 759 mmHg 72%
    08:00 +1°C° 0 mm 5 mps 759 mmHg 70%
    09:00 +2°C° 0 mm 5 mps 759 mmHg 67%
    10:00 +3°C° 0 mm 5 mps 760 mmHg 65%
    11:00 +3°C° 0 mm 5 mps 759 mmHg 64%
    12:00 +3°C° 0 mm 5 mps 759 mmHg 62%
    13:00 +3°C° 0 mm 5 mps 759 mmHg 61%
    14:00 +3°C° 0 mm 5 mps 759 mmHg 64%
    15:00 +2°C° 0 mm 5 mps 759 mmHg 67%
    16:00 +1°C° 0 mm 4 mps 759 mmHg 70%
    17:00 0°C° 0 mm 4 mps 760 mmHg 72%
    18:00 0°C° 0 mm 4 mps 760 mmHg 73%
    19:00 -1°C° 0 mm 4 mps 761 mmHg 75%
    20:00 -1°C° 0 mm 4 mps 761 mmHg 75%
    21:00 -2°C° 0 mm 4 mps 762 mmHg 75%
    22:00 -2°C° 0 mm 4 mps 762 mmHg 74%
    23:00 -2°C° 0 mm 4 mps 762 mmHg 74%

    Day after tomorrow, 19 December, Tuesday

    Time Temperature Precipitation Wind Pressure Humidity
    00:00 -2°C° 0 mm 4 mps 763 mmHg 74%
    01:00 -2°C° 0 mm 4 mps 763 mmHg 73%
    02:00 -2°C° 0 mm 4 mps 763 mmHg 73%
    03:00 -1°C° 0 mm 3 mps 763 mmHg 73%
    04:00 -1°C° 0 mm 3 mps 764 mmHg 73%
    05:00 -1°C° 0 mm 3 mps 764 mmHg 73%
    06:00 -1°C° 0 mm 3 mps 765 mmHg 73%
    07:00 -2°C° 0 mm 3 mps 765 mmHg 73%
    08:00 -1°C° 0 mm 3 mps 766 mmHg 70%
    09:00 0°C° 0 mm 3 mps 766 mmHg 67%
    10:00 +1°C° 0 mm 3 mps 766 mmHg 64%
    11:00 +2°C° 0 mm 3 mps 766 mmHg 62%
    12:00 +3°C° 0 mm 3 mps 766 mmHg 60%
    13:00 +4°C° 0 mm 3 mps 766 mmHg 57%
    14:00 +4°C° 0 mm 2 mps 766 mmHg 61%
    15:00 +3°C° 0 mm 2 mps 766 mmHg 64%
    16:00 +2°C° 0 mm 2 mps 766 mmHg 68%
    17:00 +2°C° 0 mm 2 mps 766 mmHg 70%
    18:00 +1°C° 0 mm 2 mps 766 mmHg 72%
    19:00 -1°C° 0 mm 2 mps 766 mmHg 74%
    20:00 -1°C° 0 mm 2 mps 766 mmHg 74%
    21:00 -1°C° 0 mm 2 mps 766 mmHg 73%
    22:00 -2°C° 0 mm 2 mps 766 mmHg 72%
    23:00 -1°C° 0 mm 2 mps 766 mmHg 70%

    20 December, Wednesday

    Time Temperature Precipitation Wind Pressure Humidity
    00:00 -1°C° 0 mm 2 mps 766 mmHg 68%
    01:00 -1°C° 0 mm 2 mps 765 mmHg 66%
    02:00 -1°C° 0 mm 2 mps 765 mmHg 65%
    03:00 +1°C° 0 mm 2 mps 764 mmHg 64%
    04:00 +1°C° 0 mm 2 mps 764 mmHg 63%
    05:00 +1°C° 0 mm 2 mps 764 mmHg 64%
    06:00 +1°C° 0 mm 2 mps 764 mmHg 65%
    07:00 +1°C° 0 mm 2 mps 764 mmHg 66%
    08:00 +2°C° 0 mm 2 mps 764 mmHg 66%
    09:00 +3°C° 0 mm 2 mps 764 mmHg 65%
    10:00 +4°C° 0 mm 2 mps 764 mmHg 64%
    11:00 +6°C° 0 mm 1 mps 764 mmHg 63%
    12:00 +6°C° 0 mm 1 mps 764 mmHg 63%
    13:00 +7°C° 0 mm 1 mps 763 mmHg 62%
    14:00 +6°C° 0 mm 1 mps 764 mmHg 66%
    15:00 +6°C° 0 mm 1 mps 764 mmHg 70%
    16:00 +5°C° 0 mm 1 mps 764 mmHg 74%
    17:00 +4°C° 0 mm 1 mps 764 mmHg 76%
    18:00 +3°C° 0 mm 2 mps 764 mmHg 78%
    19:00 +2°C° 0 mm 2 mps 765 mmHg 81%
    20:00 +2°C° 0 mm 2 mps 765 mmHg 81%
    21:00 +1°C° 0 mm 2 mps 765 mmHg 82%
    22:00 +1°C° 0 mm 2 mps 766 mmHg 82%
    23:00 +1°C° 0 mm 2 mps 766 mmHg 82%

    21 December, Thursday

    Time Temperature Precipitation Wind Pressure Humidity
    00:00 0°C° 0 mm 3 mps 766 mmHg 82%
    01:00 0°C° 0 mm 3 mps 766 mmHg 81%
    02:00 0°C° 0 mm 3 mps 766 mmHg 81%
    03:00 0°C° 0 mm 3 mps 765 mmHg 80%
    04:00 0°C° 0 mm 3 mps 765 mmHg 80%
    05:00 0°C° 0 mm 3 mps 766 mmHg 79%
    06:00 +1°C° 0 mm 2 mps 766 mmHg 79%
    07:00 +1°C° 0 mm 2 mps 766 mmHg 79%
    08:00 +2°C° 0 mm 2 mps 766 mmHg 76%
    09:00 +3°C° 0 mm 2 mps 766 mmHg 73%
    10:00 +5°C° 0 mm 2 mps 766 mmHg 70%
    11:00 +6°C° 0 mm 2 mps 766 mmHg 69%
    12:00 +7°C° 0 mm 1 mps 766 mmHg 68%
    13:00 +8°C° 0 mm 1 mps 765 mmHg 67%
    14:00 +8°C° 0 mm 1 mps 765 mmHg 71%
    15:00 +7°C° 0 mm 1 mps 765 mmHg 75%
    16:00 +6°C° 0 mm 1 mps 765 mmHg 79%
    17:00 +6°C° 0 mm 1 mps 766 mmHg 80%
    18:00 +6°C° 0 mm 1 mps 766 mmHg 82%
    19:00 +5°C° 0 mm 1 mps 766 mmHg 83%
    20:00 +5°C° 0 mm 2 mps 766 mmHg 83%
    21:00 +5°C° 0 mm 2 mps 766 mmHg 83%
    22:00 +5°C° 0 mm 2 mps 766 mmHg 83%
    23:00 +5°C° 0 mm 2 mps 766 mmHg 83%

    22 December, Friday

    Time Temperature Precipitation Wind Pressure Humidity
    00:00 +5°C° 0 mm 2 mps 766 mmHg 83%
    01:00 +5°C° 0 mm 2 mps 765 mmHg 83%
    02:00 +6°C° 0 mm 1 mps 765 mmHg 83%
    03:00 +7°C° 0 mm 1 mps 765 mmHg 84%
    04:00 +7°C° 0 mm 1 mps 764 mmHg 84%
    05:00 +7°C° 0.1 mm 1 mps 764 mmHg 84%
    06:00 +7°C° 0.1 mm 1 mps 764 mmHg 84%
    07:00 +8°C° 0.1 mm 1 mps 764 mmHg 84%
    08:00 +8°C° 0 mm 1 mps 763 mmHg 83%
    09:00 +9°C° 0 mm 1 mps 763 mmHg 83%
    10:00 +10°C° 0 mm 1 mps 763 mmHg 83%
    11:00 +10°C° 0 mm 1 mps 763 mmHg 83%
    12:00 +9°C° 0 mm 2 mps 762 mmHg 83%
    13:00 +9°C° 0 mm 2 mps 762 mmHg 83%
    14:00 +10°C° 0.1 mm 1 mps 762 mmHg 85%
    15:00 +9°C° 0.1 mm 1 mps 761 mmHg 88%
    16:00 +9°C° 0.1 mm 1 mps 761 mmHg 90%
    17:00 +8°C° 0.9 mm 1 mps 762 mmHg 92%
    18:00 +8°C° 0.9 mm 1 mps 762 mmHg 93%
    19:00 +8°C° 0.9 mm 1 mps 762 mmHg 94%
    20:00 +7°C° 0.7 mm 2 mps 763 mmHg 93%
    21:00 +7°C° 0.7 mm 3 mps 763 mmHg 91%
    22:00 +6°C° 0.7 mm 4 mps 764 mmHg 90%
    23:00 +6°C° 0.2 mm 5 mps 764 mmHg 84%
    Show more